Tracking 30744 objects as of 23-Jun-2025
HD Live streaming from Space Station
objects crossing your sky now

FENGYUN 1C DEB

Track FENGYUN 1C DEB now!
10-day predictions


NORAD ID: 31829
Int'l Code: 1999-025CHT
Perigee: 818.3 km
Apogee: 1,064.0 km
Inclination: 98.8 °
Period: 103.7 minutes
Semi major axis: 7312 km
RCS: 0.0129 m2 (small)
Launch date: May 10, 1999
Source: People's Republic of China (PRC)
Launch site: Taiyaun Space Center, China (TSC)

Note: This is SATELLITE DEBRIS
Your satellite tracking list
Your tracking list is empty




NASA's NSSDC Master Catalog

Two Line Element Set (TLE):
1 31829U 99025CHT 25172.73966786  .00000314  00000-0  26532-3 0  9996
2 31829  98.8291 351.6179 0168018 278.9130  96.7199 13.88462951917339
Source of the keplerian elements: AFSPC